Location: Maccacari
(45.1333°N, 11.1333°E)
Time: 07:35:47
(UTC+00:00)

SR - Pass Details

Date: 24 January 2021
Orbit: 573 x 882 km, 66.7° (Epoch: 04 March)

Event Time Altitude Azimuth Distance (km) Brightness Sun altitude
Exits shadow 03:50:43 46° 52° (NE) 965 ? -30.4°
Drops below altitude 10° 03:54:29 10° 36° (NE) 2,292 ? -29.7°
Sets 03:57:01 0° 35° (NE) 3,273 ? -29.3°
